FW2602 Weather Reports


time (UTC)temp
F
wind
direction
speed
knots
gust
knots
rain 1hr
in
rain 24hr
in
rain mn
in
humidity
%
barometer
mb
20260505235515 63 277 7.8 13.0 0.00 0.05 0.05 71 1006.3
20260505235015 63 262 6.1 12.2 0.00 0.05 0.05 71 1005.7
20260505234526 63 290 5.2 9.6 0.00 0.05 0.05 72 1005.5
20260505234015 64 262 6.1 11.3 0.00 0.05 0.05 71 1005.6
20260505233515 64 285 5.2 12.2 0.00 0.05 0.05 69 1005.4
20260505233019 63 316 6.1 12.2 0.00 0.05 0.05 70 1005.2
20260505232526 64 280 4.3 13.9 0.00 0.05 0.05 70 1005.2
20260505232010 64 205 6.1 13.9 0.00 0.05 0.05 70 1005.0
20260505231519 63 145 3.5 12.2 0.00 0.05 0.05 72 1005.0
20260505231002 63 278 4.3 9.6 0.00 0.05 0.05 72 1005.1
20260505230515 63 280 5.2 9.6 0.00 0.05 0.05 72 1005.1
20260505230042 63 255 5.2 11.3 0.00 0.05 0.05 72 1005.0
20260505225513 63 295 5.2 11.3 0.00 0.05 0.05 72 1004.9
20260505225015 63 260 3.5 8.7 0.00 0.05 0.05 72 1004.8
20260505224528 63 283 4.3 7.8 0.01 0.05 0.05 73 1004.8
20260505224014 63 273 4.3 7.8 0.01 0.05 0.05 72 1004.9
20260505223527 63 289 4.3 10.4 0.01 0.05 0.05 74 1004.8
20260505223010 62 302 4.3 10.4 0.02 0.05 0.05 75 1004.7
20260505222523 62 280 6.1 9.6 0.02 0.05 0.05 76 1004.8
20260505222009 61 280 6.1 9.6 0.02 0.05 0.05 77 1004.8
20260505221520 61 290 4.3 9.6 0.02 0.05 0.05 78 1004.9
20260505221010 60 305 4.3 11.3 0.02 0.05 0.05 81 1005.1
20260505220518 60 294 2.6 11.3 0.03 0.05 0.05 83 1005.4
20260505220004 60 280 7.0 13.9 0.03 0.05 0.05 83 1005.7
20260505215516 60 289 9.6 13.9 0.03 0.05 0.05 83 1005.7
20260505215021 60 274 7.0 14.8 0.03 0.05 0.05 84 1005.8
20260505214511 61 289 7.8 20.9 0.02 0.04 0.04 82 1005.9
20260505214017 61 294 8.7 20.9 0.02 0.04 0.04 81 1005.8
20260505213510 61 266 8.7 19.1 0.02 0.04 0.04 81 1006.1
20260505213016 62 307 11.3 19.1 0.01 0.03 0.03 81 1006.3
20260505212510 62 269 11.3 17.4 0.01 0.03 0.03 81 1006.1
20260505212016 62 298 10.4 17.4 0.01 0.03 0.03 80 1005.7
20260505211528 62 293 9.6 14.8 0.01 0.03 0.03 79 1005.5
20260505211014 64 269 8.7 18.2 0.01 0.03 0.03 75 1005.4
20260505210524 65 245 9.6 18.2 0.00 0.02 0.02 69 1005.6
20260505210015 68 314 2.6 12.2 0.00 0.02 0.02 61 1004.8
20260505205525 71 297 1.7 16.5 0.00 0.02 0.02 52 1004.5
20260505205014 74 273 3.5 9.6 0.00 0.02 0.02 38 1003.8
20260505204522 74 304 5.2 20.0 0.00 0.02 0.02 37 1003.4
20260505204010 74 296 6.1 19.1 0.00 0.02 0.02 37 1003.2
20260505203519 74 293 5.2 14.8 0.00 0.02 0.02 37 1003.2
20260505203002 74 288 5.2 18.2 0.00 0.02 0.02 37 1003.1
20260505202513 74 266 9.6 20.0 0.00 0.02 0.02 36 1003.0
20260505202021 74 274 13.0 20.0 0.00 0.02 0.02 37 1003.0
20260505201514 74 285 4.3 12.2 0.00 0.02 0.02 44 1002.9
20260505201016 75 292 7.0 12.2 0.00 0.02 0.02 42 1002.8
20260505200528 75 290 5.2 11.3 0.00 0.02 0.02 42 1002.6
20260505200012 75 301 7.0 13.0 0.00 0.02 0.02 42 1002.5
20260505195523 74 295 7.8 15.6 0.00 0.02 0.02 43 1002.5
20260505195006 74 283 8.7 15.6 0.00 0.02 0.02 45 1002.6
20260505194517 74 298 7.8 13.0 0.00 0.02 0.02 45 1002.6
20260505194011 73 285 6.1 17.4 0.00 0.02 0.02 45 1002.8
20260505193524 72 302 9.6 17.4 0.00 0.02 0.02 51 1003.0
20260505193009 71 290 7.8 18.2 0.00 0.02 0.02 50 1003.2
20260505192523 71 259 8.7 17.4 0.00 0.02 0.02 48 1003.4
20260505192004 71 300 9.6 20.9 0.00 0.02 0.02 49 1003.5
20260505191516 72 295 13.9 29.5 0.00 0.02 0.02 46 1003.5
20260505191020 73 280 17.4 29.5 0.00 0.02 0.02 40 1003.5
20260505190510 74 316 11.3 23.5 0.00 0.02 0.02 40 1003.5
20260505190017 74 295 11.3 25.2 0.00 0.02 0.02 40 1003.2
20260505185526 74 314 12.2 25.2 0.00 0.02 0.02 39 1003.2
20260505185012 75 298 11.3 22.6 0.00 0.02 0.02 39 1003.3
20260505184523 75 271 8.7 18.2 0.00 0.02 0.02 40 1003.3
20260505184012 75 222 10.4 20.9 0.00 0.02 0.02 39 1003.3
20260505183522 76 236 9.6 25.2 0.00 0.02 0.02 40 1003.2
20260505183010 75 293 13.9 27.8 0.00 0.02 0.02 38 1003.3
20260505182519 75 280 13.0 27.8 0.00 0.02 0.02 40 1003.2
20260505182005 75 307 8.7 17.4 0.00 0.02 0.02 40 1003.3
20260505181515 74 280 9.6 20.9 0.00 0.02 0.02 41 1003.3
20260505181020 74 221 10.4 20.9 0.00 0.02 0.02 41 1003.6
20260505180510 74 308 7.0 21.7 0.00 0.02 0.02 40 1003.3
20260505180036 74 291 7.8 21.7 0.00 0.02 0.02 40 1003.5
20260505175525 75 317 9.6 20.9 0.00 0.02 0.02 40 1003.5
20260505175011 75 249 11.3 28.7 0.00 0.02 0.02 40 1003.5
20260505174519 75 278 15.6 28.7 0.00 0.02 0.02 39 1003.4
20260505174004 75 256 11.3 21.7 0.00 0.02 0.02 39 1003.6
20260505173517 74 294 7.0 25.2 0.00 0.02 0.02 40 1003.6
20260505173017 75 297 14.8 25.2 0.00 0.02 0.02 39 1003.6
20260505172515 75 288 9.6 22.6 0.00 0.02 0.02 41 1003.9
20260505172019 74 310 13.9 22.6 0.00 0.02 0.02 43 1003.8
20260505171507 74 287 9.6 22.6 0.00 0.02 0.02 41 1003.9
20260505171016 74 293 10.4 20.9 0.00 0.02 0.02 41 1004.0
20260505170524 75 297 12.2 23.5 0.00 0.02 0.02 39 1004.2
20260505170013 74 248 11.3 23.5 0.00 0.02 0.02 40 1004.2
20260505165524 75 261 8.7 20.9 0.00 0.02 0.02 42 1004.4
20260505165014 74 277 10.4 21.7 0.00 0.02 0.02 43 1004.3
20260505164525 74 285 13.0 22.6 0.00 0.02 0.02 42 1004.5
20260505164008 74 298 12.2 24.3 0.00 0.02 0.02 44 1004.4
20260505163520 74 300 11.3 24.3 0.00 0.02 0.02 43 1004.4
20260505163004 74 290 15.6 24.3 0.00 0.02 0.02 40 1004.4
20260505162515 74 190 10.4 24.3 0.00 0.02 0.02 40 1004.6
20260505162020 74 217 13.0 24.3 0.00 0.02 0.02 40 1004.5
20260505161511 74 293 12.2 25.2 0.00 0.02 0.02 42 1004.5
20260505161018 73 277 12.2 29.5 0.00 0.02 0.02 42 1004.3
20260505160510 73 288 16.5 29.5 0.00 0.02 0.02 41 1004.6
20260505153010 72 280 13.0 26.9 0.00 0.02 0.02 47 1004.9
20260505152520 72 302 13.0 24.3 0.00 0.02 0.02 49 1004.9
20260505152018 72 300 11.3 26.1 0.00 0.02 0.02 49 1005.1
20260505151510 71 290 13.9 24.3 0.00 0.02 0.02 49 1005.1
20260505151015 71 276 16.5 24.3 0.00 0.02 0.02 49 1005.1
20260505150527 71 307 8.7 23.5 0.00 0.02 0.02 50 1004.9
20260505140528 66 293 7.0 17.4 0.00 0.02 0.02 57 1005.5
20260505125018 65 291 9.6 17.4 0.00 0.02 0.02 60 1005.9
20260505124513 65 295 10.4 19.1 0.00 0.02 0.02 59 1005.8
20260505124014 65 274 12.2 20.0 0.00 0.02 0.02 59 1005.9
20260505123521 64 274 9.6 20.0 0.00 0.02 0.02 59 1006.0
20260505123022 64 293 7.8 15.6 0.00 0.02 0.02 60 1006.0
20260505122520 64 239 9.6 18.2 0.00 0.02 0.02 60 1006.0
20260505122018 64 298 11.3 20.9 0.00 0.02 0.02 60 1006.0
20260505121510 64 253 5.2 20.0 0.00 0.02 0.02 60 1006.1
20260505121015 63 305 7.0 15.6 0.00 0.02 0.02 61 1006.1
20260505120517 63 255 7.0 15.6 0.00 0.02 0.02 61 1006.0
20260505120023 63 295 9.6 19.1 0.00 0.02 0.02 62 1006.0
20260505115515 63 278 7.0 19.1 0.00 0.02 0.02 62 1006.1
20260505115013 62 300 7.0 17.4 0.00 0.02 0.02 63 1006.1
20260505114513 62 298 7.8 16.5 0.00 0.02 0.02 63 1005.8
20260505114012 62 305 5.2 17.4 0.00 0.02 0.02 63 1006.1
20260505113512 61 294 7.0 17.4 0.00 0.02 0.02 63 1006.0
20260505113010 61 171 7.0 13.0 0.00 0.02 0.02 64 1006.1
20260505112513 61 278 7.0 14.8 0.00 0.02 0.02 64 1006.0
20260505112011 61 266 7.8 14.8 0.00 0.02 0.02 64 1005.9
20260505111517 61 302 4.3 13.9 0.00 0.02 0.02 64 1005.9
20260505111011 60 307 5.2 13.9 0.00 0.02 0.02 65 1005.8
20260505110507 60 250 5.2 13.0 0.00 0.02 0.02 65 1005.7
20260505102006 59 228 4.3 11.3 0.00 0.02 0.02 68 1005.4
20260505101518 58 294 4.3 11.3 0.01 0.02 0.02 69 1005.4
20260505101005 58 330 2.6 7.8 0.01 0.02 0.02 69 1005.5
20260505100505 58 312 1.7 7.8 0.01 0.02 0.02 69 1005.4
20260505100019 58 283 0.9 7.0 0.02 0.02 0.02 70 1005.5
20260505095503 57 281 1.7 5.2 0.02 0.02 0.02 72 1005.4
20260505095004 57 132 0.0 2.6 0.02 0.02 0.02 73 1005.4
20260505094504 57 46 0.0 2.6 0.02 0.02 0.02 72 1005.3
20260505094001 58 109 0.0 5.2 0.02 0.02 0.02 70 1005.5
20260505093603 59 263 0.0 6.1 0.02 0.02 0.02 68 1005.6
20260505093105 59 318 1.7 8.7 0.02 0.02 0.02 66 1005.9
20260505092601 59 293 3.5 8.7 0.02 0.02 0.02 67 1006.0
20260505092059 59 301 3.5 13.9 0.02 0.02 0.02 66 1006.0
20260505091557 59 298 7.0 13.9 0.01 0.01 0.01 65 1005.9
20260505091055 60 266 5.2 12.2 0.01 0.01 0.01 63 1006.0
20260505090554 61 284 6.1 13.0 0.01 0.01 0.01 60 1005.8
20260505090053 61 63 5.2 13.0 0.00 0.00 0.00 57 1005.3
20260505085552 61 287 5.2 13.0 0.00 0.00 0.00 58 1005.1
20260505085052 61 285 5.2 13.0 0.00 0.00 0.00 57 1005.2
20260505084551 61 295 5.2 11.3 0.00 0.00 0.00 57 1005.3
20260505084051 60 340 5.2 10.4 0.00 0.00 0.00 57 1005.2
20260505083549 60 316 6.1 11.3 0.00 0.00 0.00 57 1005.4
20260505083049 61 302 3.5 11.3 0.00 0.00 0.00 57 1005.2
20260505082548 61 280 6.1 13.9 0.00 0.00 0.00 57 1005.4
20260505082048 61 283 7.0 13.9 0.00 0.00 0.00 56 1005.4
20260505081600 61 294 5.2 14.8 0.00 0.00 0.00 56 1005.6
20260505081047 61 315 6.1 11.3 0.00 0.00 0.00 56 1005.4
20260505080549 61 266 5.2 12.2 0.00 0.00 0.00 56 1005.4
20260505080056 61 297 6.1 12.2 0.00 0.00 0.00 56 1005.5
20260505075545 61 259 6.1 11.3 0.00 0.00 0.00 56 1005.7
20260505075045 61 291 4.3 12.2 0.00 0.00 0.00 55 1005.7
20260505074543 61 291 7.0 12.2 0.00 0.00 0.00 55 1005.5
20260505074044 61 289 3.5 13.9 0.00 0.00 0.00 55 1005.7
20260505073541 61 302 5.2 14.8 0.00 0.00 0.00 55 1005.6
20260505073041 61 285 4.3 14.8 0.00 0.00 0.00 55 1005.4
20260505072540 61 300 3.5 14.8 0.00 0.00 0.00 54 1005.4
20260505072038 61 330 3.5 13.0 0.00 0.00 0.00 54 1005.5
20260505071548 60 322 1.7 10.4 0.00 0.00 0.00 54 1005.5
20260505071038 61 257 3.5 7.8 0.00 0.00 0.00 54 1005.5
20260505070537 61 297 2.6 12.2 0.00 0.00 0.00 54 1005.5
20260505070036 61 242 3.5 12.2 0.00 0.00 0.00 54 1005.5
20260505065535 61 285 5.2 10.4 0.00 0.00 0.00 53 1005.7
20260505065034 61 289 2.6 16.5 0.00 0.00 0.00 53 1005.7
20260505064533 61 322 4.3 16.5 0.00 0.00 0.00 53 1005.7
20260505064036 61 284 4.3 9.6 0.00 0.00 0.00 53 1005.8
20260505063533 61 274 4.3 14.8 0.00 0.00 0.00 53 1005.8
20260505063038 61 256 4.3 14.8 0.00 0.00 0.00 53 1005.7
20260505062532 61 167 5.2 12.2 0.00 0.00 0.00 53 1005.8
20260505062029 61 264 3.5 13.0 0.00 0.00 0.00 52 1005.7
20260505061534 61 322 5.2 13.0 0.00 0.00 0.00 52 1005.7
20260505061028 61 323 4.3 9.6 0.00 0.00 0.00 52 1005.8
20260505060528 61 319 5.2 16.5 0.00 0.00 0.00 52 1005.7
20260505060027 61 349 3.5 16.5 0.00 0.00 0.00 51 1005.6
20260505055526 61 240 3.5 12.2 0.00 0.00 0.00 51 1005.6
20260505055026 61 217 3.5 11.3 0.00 0.00 0.00 52 1005.9
20260505054526 61 323 2.6 12.2 0.00 0.00 0.00 51 1005.8
20260505054026 61 245 3.5 11.3 0.00 0.00 0.00 51 1005.9
20260505053523 61 326 4.3 11.3 0.00 0.00 0.00 52 1005.8
20260505053035 61 263 4.3 14.8 0.00 0.00 0.00 51 1005.7
20260505052526 61 291 5.2 14.8 0.00 0.00 0.00 51 1005.9
20260505052026 61 304 3.5 9.6 0.00 0.00 0.00 52 1006.0
20260505051536 61 277 2.6 7.8 0.00 0.00 0.00 52 1006.1
20260505051024 61 166 2.6 8.7 0.00 0.00 0.00 52 1006.0
20260505050520 61 269 2.6 8.7 0.00 0.00 0.00 52 1006.0
20260505041521 60 137 2.6 7.0 0.00 0.00 0.00 51 1006.0
20260505041020 61 326 0.9 9.6 0.00 0.00 0.00 51 1006.0
20260505040515 61 340 2.6 7.0 0.00 0.00 0.00 51 1006.0
20260505040014 61 298 2.6 7.0 0.00 0.00 0.00 50 1005.9
20260505035517 61 49 2.6 9.6 0.00 0.00 0.00 50 1005.9
20260505035012 61 291 3.5 9.6 0.00 0.00 0.00 50 1005.9
20260505034512 61 111 2.6 9.6 0.00 0.00 0.00 50 1005.9
20260505034015 61 308 3.5 9.6 0.00 0.00 0.00 49 1005.9
20260505033513 61 42 2.6 10.4 0.00 0.00 0.00 49 1006.0
20260505033013 61 304 4.3 10.4 0.00 0.00 0.00 49 1006.1
20260505032512 61 297 3.5 10.4 0.00 0.00 0.00 49 1006.1
20260505032014 61 290 4.3 10.4 0.00 0.00 0.00 48 1006.2
20260505031512 61 353 3.5 9.6 0.00 0.00 0.00 48 1006.2
20260505031018 61 309 3.5 10.4 0.00 0.00 0.00 48 1006.1
20260505030513 61 162 2.6 10.4 0.00 0.00 0.00 47 1006.1
20260505030012 61 318 1.7 7.8 0.00 0.00 0.00 47 1006.1
20260505025611 62 339 1.7 9.6 0.00 0.00 0.00 47 1006.1
20260505025011 62 249 2.6 9.6 0.00 0.00 0.00 47 1006.1
20260505024510 62 68 2.6 7.8 0.00 0.00 0.00 46 1006.1
20260505024009 62 289 2.6 7.8 0.00 0.00 0.00 46 1006.2
20260505023510 62 311 2.6 8.7 0.00 0.00 0.00 45 1006.3
20260505023014 62 73 2.6 8.7 0.00 0.00 0.00 46 1006.3
20260505022510 62 306 3.5 7.8 0.00 0.00 0.00 46 1006.3
20260505022008 62 284 2.6 7.8 0.00 0.00 0.00 45 1006.4
20260505021508 62 308 0.9 7.0 0.00 0.00 0.00 45 1006.3
20260505021012 62 289 1.7 7.0 0.00 0.00 0.00 45 1006.4
20260505020509 62 277 1.7 7.8 0.00 0.00 0.00 45 1006.5
20260505020008 62 166 1.7 7.8 0.00 0.00 0.00 45 1006.5
20260505015508 62 292 0.9 6.1 0.00 0.00 0.00 45 1006.5
20260505015007 62 309 1.7 7.0 0.00 0.00 0.00 45 1006.5
20260505014506 62 302 2.6 7.0 0.00 0.00 0.00 45 1006.5
20260505014006 62 273 0.9 6.1 0.00 0.00 0.00 45 1006.6
20260505013507 62 305 1.7 7.0 0.00 0.00 0.00 45 1006.5
20260505013007 62 248 2.6 7.0 0.00 0.00 0.00 44 1006.5
20260505012508 62 296 0.9 6.1 0.00 0.00 0.00 45 1006.6
20260505012007 62 264 1.7 7.8 0.00 0.00 0.00 44 1006.6
20260505011506 62 301 0.9 5.2 0.00 0.00 0.00 45 1006.6
20260505011008 63 306 1.7 5.2 0.00 0.00 0.00 44 1006.6
20260505010506 63 283 0.9 5.2 0.00 0.00 0.00 44 1006.5
20260505010015 63 259 1.7 5.2 0.00 0.00 0.00 44 1006.4
20260505005506 63 325 0.9 6.1 0.00 0.00 0.00 44 1006.3
20260505005006 63 235 0.9 10.4 0.00 0.00 0.00 44 1006.2
20260505004506 63 293 2.6 10.4 0.00 0.00 0.00 44 1006.2
20260505004009 63 256 1.7 6.1 0.00 0.00 0.00 44 1006.1
20260505003514 63 298 2.6 6.1 0.00 0.00 0.00 43 1006.2
20260505003018 63 335 1.7 7.0 0.00 0.00 0.00 44 1006.1
20260505002509 63 315 0.0 7.0 0.00 0.00 0.00 44 1006.2
20260505002010 63 296 0.9 7.0 0.00 0.00 0.00 43 1006.1
20260505001523 63 115 1.7 7.8 0.00 0.00 0.00 43 1006.0
20260505001011 64 300 0.9 7.8 0.00 0.00 0.00 42 1006.1
20260505000518 64 39 0.9 5.2 0.00 0.00 0.00 42 1006.0
20260505000001 64 30 1.7 5.2 0.00 0.00 0.00 41 1006.0